Home > Weather > Itzehoe > Past weeks

Flag for Germany Weather for the Past 2 Weeks in Itzehoe, Schleswig-Holstein, Germany

Now
37 °F

Broken clouds.


Feels Like: 37 °F
Forecast: 31 / 40 °F
Wind: 2 mph from North

Location: Hohn

Current Time: Feb 12, 2016 at 11:32:01 AM

Latest Report: Feb 12, 2016 at 10:20 AM


Visibility: N/A

Pressure: 29.56 "Hg

Humidity: 100%

Dew point: 37 °F

Location of ItzehoeLocation

Historic Weather in Itzehoe — Graph

°F

Itzehoe Temperature Yesterday

Maximum temperature yesterday: 41 °F (at 12:20 AM)
Minimum temperature yesterday: 36 °F (at 10:20 PM)
Average temperature yesterday: 39 °F

High & Low Weather Summary for the Past Weeks

 TemperatureHumidityPressure
High52 °F (Feb 7, 12:20 PM)100% (Feb 1, 12:20 AM)30.15 "Hg (Feb 1, 12:20 AM)
Low32 °F (Feb 4, 11:20 PM)65% (Jan 30, 9:20 PM)28.85 "Hg (Feb 9, 9:20 PM)
Average42 °F86%29.60 "Hg
* Reported Jan 28 10:20 AM — Feb 12 10:20 AM, Itzehoe, Weather by CustomWeather, © 2016

Note: Actual official high and low records may vary slightly from our data, if they occured in-between our weather recording intervals... More about our weather records

Advertising

Itzehoe Weather History for the Previous 24 Hours

 ConditionsComfort  
Time TempWeatherWind HumidityBarometerVisibility
10:20 AM
Fri, Feb 12
37 °FBroken clouds.2 mph100%29.56 "HgN/A
9:20 AM37 °FLight rain. Partly sunny.2 mph93%29.56 "HgN/A
8:47 AM37 °FPartly sunny.1 mph93%29.56 "HgN/A
8:20 AM36 °FBroken clouds.2 mph100%29.56 "HgN/A
7:20 AM37 °FPassing clouds.No wind93%29.56 "HgN/A
6:20 AM36 °FPassing clouds.3 mph100%29.56 "HgN/A
5:57 AM37 °FPassing clouds.2 mph93%29.56 "HgN/A
5:20 AM36 °FLight rain. Passing clouds.2 mph100%29.56 "Hg6 mi
4:20 AM37 °FChilly.1 mph100%29.56 "Hg2 mi
3:20 AM37 °FChilly.1 mph93%29.56 "Hg4 mi
2:20 AM37 °FChilly.5 mph100%29.56 "Hg1 mi
1:20 AM37 °FChilly.5 mph100%29.56 "Hg4 mi
12:20 AM37 °FChilly.8 mph93%29.53 "Hg4 mi
11:20 PM
Thu, Feb 11
37 °FChilly.6 mph93%29.53 "Hg5 mi
10:20 PM36 °FChilly.6 mph100%29.53 "Hg5 mi
9:20 PM37 °FChilly.8 mph100%29.53 "Hg5 mi
8:46 PM37 °FPassing clouds.7 mph100%29.53 "Hg5 mi
8:20 PM37 °FLight rain. Partly cloudy.8 mph93%29.53 "Hg4 mi
7:20 PM39 °FPassing clouds.5 mph93%29.53 "HgN/A
6:49 PM39 °FPassing clouds.6 mph93%29.53 "HgN/A
6:20 PM37 °FPartly cloudy.6 mph93%29.53 "HgN/A
5:20 PM39 °FSprinkles. Broken clouds.7 mph93%29.50 "Hg6 mi
4:20 PM39 °FBroken clouds.8 mph93%29.50 "HgN/A
3:20 PM39 °FPartly sunny.15 mph93%29.47 "HgN/A
2:20 PM41 °FPartly sunny.10 mph93%29.47 "HgN/A
2:00 PM41 °FRain showers. Fog.8 mph93%29.47 "Hg2 mi
1:20 PM41 °FPartly sunny.6 mph93%29.47 "HgN/A
12:20 PM41 °FPartly sunny.7 mph93%29.47 "HgN/A
12:01 PM41 °FFog.7 mph93%29.47 "Hg3 mi
11:49 AM41 °FSprinkles. Fog.10 mph87%29.47 "Hg2 mi
11:20 AM41 °FPartly sunny.12 mph93%29.45 "HgN/A
Weather by CustomWeather, © 2016

See weather overviewHow to use our weather pages